Regional Weather Roundup
Issued by NWS Cleveland, OH

Home | Current Version | Previous Version | Text Only | Print | Product List | Glossary Off
Versions: 1 2 3 4 5 6 7 8 9 10 11 12 13 14 15 16 17 18 19 20 21 22 23 24 25 26 27 28 29 30 31 32 33 34 35 36 37 38 39 40 41 42 43 44 45 46 47 48 49 50

000
ASUS41 KCLE 311500
RWRCLE
OHIO REGIONAL WEATHER ROUNDUP
NATIONAL WEATHER SERVICE WILMINGTON, OH
1100 AM EDT THU JUL 31 2014

NOTE: "FAIR" INDICATES FEW OR NO CLOUDS BELOW 12,000 FEET WITH NO
SIGNIFICANT WEATHER AND/OR OBSTRUCTIONS TO VISIBILITY.

OHZ001>008-015>018-024>027-034-035-043-044-311600-
   NORTHWEST OHIO

CITY           SKY/WX    TMP DP  RH WIND       PRES   REMARKS
DEFIANCE       SUNNY     73  56  54 SW6       30.07R
FINDLAY        SUNNY     73  56  54 SW6       30.07S
TOLEDO EXPRESS SUNNY     72  54  53 S7        30.06R
TOLEDO METCALF SUNNY     72  52  49 SW9       30.06S
LIMA           SUNNY     72  59  63 SW6       30.09R
$$

OHZ009>014-019>023-028>033-038-089-311600-
   NORTHEAST OHIO

CITY           SKY/WX    TMP DP  RH WIND       PRES   REMARKS
CLE-HOPKINS    SUNNY     69  54  58 W10       30.09R
CLE-LAKEFRONT  SUNNY     69  55  60 W12       30.05R
CUY CO. ARPT   MOSUNNY   70  55  60 W16       30.07R
LORAIN-ELYRIA  SUNNY     71  54  54 W8        30.08R
ASHTABULA      MOSUNNY   68  59  73 W9        30.06S
AKRON-CANTON   MOSUNNY   70  60  70 VRB7      30.09R
WOOSTER        NOT AVBL
MANSFIELD      SUNNY     71  57  61 SW7       30.10R
YOUNGSTOWN     MOSUNNY   69  59  70 W9        30.08R
$$

OHZ042-051>053-060>062-070>072-077>081-311600-
  SOUTHWEST OHIO

CITY           SKY/WX    TMP DP  RH WIND       PRES   REMARKS
CINC-COVINGTON SUNNY     76  61  59 W6        30.11
CINC-LUNKEN    SUNNY     76  63  64 CALM      30.10S
HAMILTON       SUNNY     74  63  68 W3        30.11S
DAYTON         NOT AVBL
WRIGHT-PAT AFB NOT AVBL
DAYTON GENERAL SUNNY     74  62  66 MISG      30.10S
WILMINGTON     SUNNY     73  63  70 SW6       30.11R
$$

OHZ036-037-039>041-045>050-054>059-063>069-073>076-082>088-311600-
  CENTRAL AND SOUTHEAST OHIO

CITY           SKY/WX    TMP DP  RH WIND       PRES   REMARKS
COLUMBUS       MOSUNNY   73  62  68 VRB6      30.09R
OSU AIRPORT    SUNNY     72  63  73 SW9       30.10R
BOLTON FIELD   NOT AVBL
RICKENBACK AFB NOT AVBL
NEWARK         SUNNY     72  62  71 SW6       30.10R
MARION         SUNNY     71  60  68 W6        30.09S
LANCASTER      SUNNY     72  63  73 SW6       30.11R
ZANESVILLE     MOSUNNY   71  61  70 S6        30.10S
NEW PHILLY     MOSUNNY   70  63  78 S7        30.10R
$$


USA.gov is the U.S. government's official web portal to all federal, state and local government web resources and services.